Regional Weather Roundup
Issued by NWS

Home | Current Version | Previous Version | Graphics & Text | Print | Product List | Glossary On
Versions: 1 2 3 4 5 6 7 8 9 10 11 12 13 14 15 16 17 18 19 20 21 22 23 24 25 26 27 28 29 30 31 32 33 34 35 36 37 38 39 40 41 42 43 44 45 46 47 48 49 50
000
ASUS43 KLSX 221007
RWRMO

WEATHER SUMMARY FOR MISSOURI
NATIONAL WEATHER SERVICE SPRINGFIELD MO
400 AM CST THU FEB 22 2018

NOTE: "FAIR" INDICATES FEW OR NO CLOUDS BELOW 12,000 FEET WITH NO
       SIGNIFICANT WEATHER AND/OR OBSTRUCTIONS TO VISIBILITY.
       CURRENT SKY AND/OR WEATHER CONDITIONS ARE NOT AVAILABLE FOR
       CHILLICOTHE AND FARMINGTON.

MOZ001>031-035>038-043-044-053-054-221100-
...NORTHERN AND WESTERN MISSOURI...

CITY           SKY/WX    TMP DP  RH WIND       PRES   REMARKS
KANSAS CTY INT FRZ DRZL  26  24  92 NE9       30.39F WCI  17
KANSAS C DTWN  FRZ RAIN  29  24  82 NE7       30.40S WCI  22
LEE`S SUMMIT   CLOUDY    27  26  96 NE10      30.38F FOG     WCI  17
ST JOSEPH      CLOUDY    26  25  96 NE5       30.43F FOG     WCI  20
CHILLICOTHE      N/A     28  25  88 NE9       30.43F WCI  19
KIRKSVILLE     FRZ RAIN  28  26  92 NE15      30.43S WCI  16

$$
MOZ066>068-077>081-088>096-101>105-221100-
...SOUTHWEST MISSOURI...

CITY           SKY/WX    TMP DP  RH WIND       PRES   REMARKS
SPRINGFIELD    MIX PCPN  31  30  96 E3        30.31S FOG
JOPLIN         CLOUDY    30  30 100 E5        30.33F FOG     WCI  25

$$
MOZ032>034-039>042-045>050-055>058-069>072-221100-
...CENTRAL MISSOURI...

CITY           SKY/WX    TMP DP  RH WIND       PRES   REMARKS
COLUMBIA       CLOUDY    31  30  96 NE8       30.38S FOG     WCI  23
JEFFERSON CITY FRZ RAIN  32  29  88 E7        30.40S FOG     WCI  26
ROLLA          FRZ RAIN  31  31 100 NE6       30.35S FOG     WCI  25
SEDALIA        CLOUDY    31  30  96 NE8       30.38S FOG     WCI  23
WHITEMAN AFB   FRZ DRZL  29  27  93 NE6       30.34S VSB 1   WCI  23
WARRENSBURG    CLOUDY    28  28 100 NE5       30.39S FOG     WCI  23
OSAGE BEACH    LGT SNOW  31  30  96 NE7       30.37F FOG     WCI  24

$$
MOZ051-052-059>065-221100-
...EAST CENTRAL MISSOURI...

CITY           SKY/WX    TMP DP  RH WIND       PRES   REMARKS
ST LOUIS INTL  LGT RAIN  33  32  96 NE12      30.38F FOG     WCI  24
SPIRIT OF STL  LGT RAIN  33  32  96 NE8       30.38R FOG     WCI  26
ST CHARLES     CLOUDY    33  31  92 NE13      30.40S FOG     WCI  24

$$
MOZ072>076-082>087-097>100-106>115-221100-
...SOUTH CENTRAL AND SOUTHEAST MISSOURI...

CITY           SKY/WX    TMP DP  RH WIND       PRES   REMARKS
CAPE GIRARDEAU LGT RAIN  39  37  92 NW14      30.31F
FARMINGTON     MIX PCPN  32  31  96 N7        30.33F FOG     WCI  26
POPLAR BLUFF   CLOUDY    39  37  92 N8        30.30R
WEST PLAINS    MIX PCPN  32  31  96 N3        30.31R FOG

$$



USA.gov is the U.S. government's official web portal to all federal, state and local government web resources and services.